WFOV (USA 332)

Last updated on Tue Sep 22 2026 00:03:15 GMT+0000 (Coordinated Universal Time)

1 52940U 22073A 26264.44140380 -.00000364 00000+0 00000+0 0 9990 2 52940 3.9506 77.2406 0002221 162.1929 39.1023 1.00274908 15339
UTC large
Height (km)
Speed (km/s)
/
Latitude / Longitude
Inclination (degrees)
Orbital Period (minutes)
Azimuth
Elevation
Range (km)
Doppler Factor

Next 0 passes for location: London (51.5072 / 0.1276)

No passes found over London.
WFOV (USA 332)